Location: Lombard
(41.8800°N, 88.0080°W)
Time: 20:00:42
(UTC-05:00)

Transit 2A - Pass Details

Date: 12 February 2023
Orbit: 591 x 964 km, 66.7° (Epoch: 29 March)

Event Time Altitude Azimuth Distance (km) Brightness Sun altitude
Rises 17:03:46 0° 281° (W) 3,159 10.3 2.2°
Reaches altitude 10° 17:09:02 10° 327° (NNW) 2,369 8.8 1.3°
Maximum altitude 17:09:30 10° 332° (NNW) 2,374 8.7 1.2°
Drops below altitude 10° 17:09:58 10° 337° (NNW) 2,392 8.6 1.1°
Sets 17:15:40 0° 21° (NNE) 3,460 9.0 0.1°
